User: anonymous   Login
Location: Unspecified
(0.0000°N, 0.0000°E)
Time: 09:02:45
(UTC+00:00)
Language:

JY1SAT - Orbit

View from above orbital plane
View from above orbital plane
View from above satellite
View from above satellite

Ground track
Ground track

The orbit is defined by the following mean orbital elements,

1 43803U          26145.58022645 +.00000000 +00000-0 +52678-3 0 00002
2 43803  97.4147 208.3482 0005046   8.6657 351.4671 15.32822128    07
Epoch (UTC): 25 May 2026 13:55:31
Eccentricity: 0.0005046
inclination: 97.4147°
perigee height: 464 km
apogee height: 471 km
right ascension of ascending node: 208.3482°
argument of perigee: 8.6657°
revolutions per day: 15.32822128
mean anomaly at epoch: 351.4671°

The dashed part of the orbit path shows where the satellite is in the earth's shadow,  

DLR